Time,TemperatureF,DewpointF,PressureIn,WindDirection,WindDirectionDegrees,WindSpeedMPH,WindSpeedGustMPH,Humidity,HourlyPrecipIn,Conditions,Clouds,dailyrainin,SolarRadiationWatts/m^2,SoftwareType,DateUTC
2013-03-07 00:01:00,31.4,27.7,30.30,North,10,4.0,4.0,86,0.00,,,0.00,0,Wunderground v.1.15,2013-03-07 05:01:00,
2013-03-07 00:02:00,31.3,27.9,30.30,North,5,3.0,4.0,87,0.00,,,0.00,0,Wunderground v.1.15,2013-03-07 05:02:00,
2013-03-07 00:04:00,31.4,28.0,30.30,NNW,343,4.0,4.0,87,0.00,,,0.00,0,Wunderground v.1.15,2013-03-07 05:04:00,
2013-03-07 00:10:00,31.3,27.9,30.30,North,11,3.0,3.0,87,0.00,,,0.00,0,Wunderground v.1.15,2013-03-07 05:10:00,
2013-03-07 00:15:00,31.3,27.9,30.30,NNW,336,2.0,5.0,87,0.00,,,0.00,0,Wunderground v.1.15,2013-03-07 05:15:00,
2013-03-07 00:21:00,31.3,27.9,30.30,NNE,17,2.0,4.0,87,0.00,,,0.00,0,Wunderground v.1.15,2013-03-07 05:21:00,
2013-03-07 00:25:00,31.3,27.9,30.30,NNE,26,2.0,4.0,87,0.00,,,0.00,0,Wunderground v.1.15,2013-03-07 05:25:00,
2013-03-07 00:31:00,31.2,27.8,30.30,North,11,4.0,6.0,87,0.00,,,0.00,0,Wunderground v.1.15,2013-03-07 05:31:00,
2013-03-07 00:36:00,31.2,27.5,30.30,NE,34,3.0,6.0,86,0.00,,,0.00,0,Wunderground v.1.15,2013-03-07 05:36:00,
2013-03-07 00:42:00,31.3,27.9,30.30,NNE,27,3.0,4.0,87,0.00,,,0.00,0,Wunderground v.1.15,2013-03-07 05:42:00,
2013-03-07 00:48:00,31.3,27.6,30.30,NNW,338,2.0,4.0,86,0.00,,,0.00,0,Wunderground v.1.15,2013-03-07 05:48:00,
2013-03-07 00:53:00,31.3,27.6,30.29,NNE,17,2.0,4.0,86,0.00,,,0.00,0,Wunderground v.1.15,2013-03-07 05:53:00,
2013-03-07 01:01:00,31.3,27.9,30.30,NNE,15,2.0,2.0,87,0.00,,,0.00,0,Wunderground v.1.15,2013-03-07 06:01:00,
2013-03-07 01:06:00,31.3,27.6,30.30,North,355,5.0,5.0,86,0.00,,,0.00,0,Wunderground v.1.15,2013-03-07 06:06:00,
2013-03-07 01:11:00,31.2,27.5,30.30,NE,52,1.0,3.0,86,0.00,,,0.00,0,Wunderground v.1.15,2013-03-07 06:11:00,
2013-03-07 01:17:00,31.2,27.5,30.30,NNW,329,1.0,3.0,86,0.00,,,0.00,0,Wunderground v.1.15,2013-03-07 06:17:00,
2013-03-07 01:23:00,31.2,27.8,30.30,NNW,329,0.0,1.0,87,0.00,,,0.00,0,Wunderground v.1.15,2013-03-07 06:23:00,
2013-03-07 01:29:00,31.2,27.8,30.30,NNW,329,0.0,1.0,87,0.00,,,0.00,0,Wunderground v.1.15,2013-03-07 06:29:00,
2013-03-07 01:35:00,31.1,27.7,30.30,NNW,340,2.0,2.0,87,0.00,,,0.00,0,Wunderground v.1.15,2013-03-07 06:35:00,
2013-03-07 01:40:00,31.1,27.7,30.30,NNW,340,1.0,1.0,87,0.00,,,0.00,0,Wunderground v.1.15,2013-03-07 06:40:00,
2013-03-07 01:46:00,31.1,27.7,30.30,NNW,342,2.0,2.0,87,0.00,,,0.00,0,Wunderground v.1.15,2013-03-07 06:46:00,
2013-03-07 01:52:00,31.1,27.7,30.31,NW,313,3.0,3.0,87,0.00,,,0.00,0,Wunderground v.1.15,2013-03-07 06:52:00,
2013-03-07 01:58:00,31.1,27.7,30.31,NNW,333,2.0,3.0,87,0.00,,,0.00,0,Wunderground v.1.15,2013-03-07 06:58:00,
2013-03-07 02:03:00,31.1,27.7,30.31,NW,314,2.0,4.0,87,0.00,,,0.00,0,Wunderground v.1.15,2013-03-07 07:03:00,
2013-03-07 02:08:00,31.1,27.7,30.31,North,5,2.0,4.0,87,0.00,,,0.00,0,Wunderground v.1.15,2013-03-07 07:08:00,
2013-03-07 02:13:00,31.1,27.7,30.31,NNW,336,1.0,3.0,87,0.00,,,0.00,0,Wunderground v.1.15,2013-03-07 07:13:00,
2013-03-07 02:18:00,31.1,27.7,30.31,NW,317,3.0,3.0,87,0.00,,,0.00,0,Wunderground v.1.15,2013-03-07 07:18:00,
2013-03-07 02:23:00,31.1,27.7,30.31,NNW,328,5.0,5.0,87,0.00,,,0.00,0,Wunderground v.1.15,2013-03-07 07:23:00,
2013-03-07 02:28:00,31.1,27.7,30.31,NNW,328,3.0,5.0,87,0.00,,,0.00,0,Wunderground v.1.15,2013-03-07 07:28:00,
2013-03-07 02:33:00,31.1,27.7,30.31,NW,308,3.0,5.0,87,0.00,,,0.00,0,Wunderground v.1.15,2013-03-07 07:33:00,
2013-03-07 02:38:00,31.1,27.7,30.31,NW,321,3.0,5.0,87,0.00,,,0.00,0,Wunderground v.1.15,2013-03-07 07:38:00,
2013-03-07 02:43:00,31.1,28.0,30.31,NW,318,1.0,3.0,88,0.00,,,0.00,0,Wunderground v.1.15,2013-03-07 07:43:00,
2013-03-07 02:49:00,31.1,28.0,30.31,NW,319,1.0,3.0,88,0.00,,,0.00,0,Wunderground v.1.15,2013-03-07 07:49:00,
2013-03-07 02:54:00,31.0,27.9,30.31,NW,326,2.0,3.0,88,0.00,,,0.00,0,Wunderground v.1.15,2013-03-07 07:54:00,
2013-03-07 02:59:00,31.0,27.9,30.32,NW,325,2.0,5.0,88,0.00,,,0.00,0,Wunderground v.1.15,2013-03-07 07:59:00,
2013-03-07 03:04:00,31.0,27.9,30.32,NW,318,3.0,4.0,88,0.00,,,0.00,0,Wunderground v.1.15,2013-03-07 08:04:00,
2013-03-07 03:09:00,31.0,27.9,30.32,NNW,329,3.0,4.0,88,0.00,,,0.00,0,Wunderground v.1.15,2013-03-07 08:09:00,
2013-03-07 03:14:00,31.0,27.9,30.32,NW,313,3.0,5.0,88,0.00,,,0.00,0,Wunderground v.1.15,2013-03-07 08:14:00,
2013-03-07 03:19:00,31.0,27.9,30.32,NW,315,2.0,5.0,88,0.00,,,0.00,0,Wunderground v.1.15,2013-03-07 08:19:00,
2013-03-07 03:24:00,30.9,27.8,30.32,NNW,344,5.0,8.0,88,0.00,,,0.00,0,Wunderground v.1.15,2013-03-07 08:24:00,
2013-03-07 03:29:00,30.9,27.8,30.31,NW,319,4.0,8.0,88,0.00,,,0.00,0,Wunderground v.1.15,2013-03-07 08:29:00,
2013-03-07 03:34:00,31.0,27.9,30.31,NNW,332,5.0,5.0,88,0.00,,,0.00,0,Wunderground v.1.15,2013-03-07 08:34:00,
2013-03-07 03:39:00,30.9,27.8,30.31,NW,312,2.0,5.0,88,0.00,,,0.00,0,Wunderground v.1.15,2013-03-07 08:39:00,
2013-03-07 03:44:00,30.9,27.8,30.31,NNW,340,2.0,5.0,88,0.00,,,0.00,0,Wunderground v.1.15,2013-03-07 08:44:00,
2013-03-07 03:49:00,30.9,27.8,30.31,NW,315,1.0,3.0,88,0.00,,,0.00,0,Wunderground v.1.15,2013-03-07 08:49:00,
2013-03-07 03:54:00,30.9,27.8,30.31,NNW,331,2.0,4.0,88,0.00,,,0.00,0,Wunderground v.1.15,2013-03-07 08:54:00,
2013-03-07 04:01:00,30.9,27.8,30.31,NW,309,1.0,2.0,88,0.00,,,0.00,0,Wunderground v.1.15,2013-03-07 09:01:00,
2013-03-07 04:06:00,30.8,27.7,30.31,NNW,333,2.0,4.0,88,0.00,,,0.00,0,Wunderground v.1.15,2013-03-07 09:06:00,
2013-03-07 04:11:00,30.9,27.8,30.31,NNW,333,0.0,2.0,88,0.00,,,0.00,0,Wunderground v.1.15,2013-03-07 09:11:00,
2013-03-07 04:16:00,30.9,27.8,30.32,NNW,340,1.0,4.0,88,0.00,,,0.00,0,Wunderground v.1.15,2013-03-07 09:16:00,
2013-03-07 04:21:00,30.9,27.8,30.32,North,355,2.0,2.0,88,0.00,,,0.00,0,Wunderground v.1.15,2013-03-07 09:21:00,
2013-03-07 04:26:00,30.9,27.8,30.32,NNW,331,2.0,3.0,88,0.00,,,0.00,0,Wunderground v.1.15,2013-03-07 09:26:00,
2013-03-07 04:31:00,30.9,27.8,30.32,NNW,344,0.0,2.0,88,0.00,,,0.00,0,Wunderground v.1.15,2013-03-07 09:31:00,
2013-03-07 04:36:00,30.9,27.8,30.32,NW,321,1.0,4.0,88,0.00,,,0.00,0,Wunderground v.1.15,2013-03-07 09:36:00,
2013-03-07 04:41:00,30.9,27.8,30.32,North,355,3.0,4.0,88,0.00,,,0.00,0,Wunderground v.1.15,2013-03-07 09:41:00,
2013-03-07 04:46:00,30.9,27.8,30.32,NNW,327,2.0,4.0,88,0.00,,,0.00,0,Wunderground v.1.15,2013-03-07 09:46:00,
2013-03-07 04:51:00,30.9,27.8,30.32,NNW,327,1.0,4.0,88,0.00,,,0.00,0,Wunderground v.1.15,2013-03-07 09:51:00,
2013-03-07 04:56:00,30.9,27.8,30.32,WNW,290,1.0,5.0,88,0.00,,,0.00,0,Wunderground v.1.15,2013-03-07 09:56:00,
2013-03-07 05:01:00,31.0,27.9,30.33,NW,307,3.0,3.0,88,0.00,,,0.00,0,Wunderground v.1.15,2013-03-07 10:01:00,
2013-03-07 05:06:00,31.0,27.9,30.33,NW,308,3.0,3.0,88,0.00,,,0.00,0,Wunderground v.1.15,2013-03-07 10:06:00,
2013-03-07 05:11:00,30.9,27.8,30.33,NW,313,2.0,3.0,88,0.00,,,0.00,0,Wunderground v.1.15,2013-03-07 10:11:00,
2013-03-07 05:16:00,30.9,27.8,30.33,NW,304,2.0,5.0,88,0.00,,,0.00,0,Wunderground v.1.15,2013-03-07 10:16:00,
2013-03-07 05:21:00,30.9,27.8,30.33,NW,309,2.0,2.0,88,0.00,,,0.00,0,Wunderground v.1.15,2013-03-07 10:21:00,
2013-03-07 05:26:00,30.9,27.8,30.33,NW,309,0.0,2.0,88,0.00,,,0.00,0,Wunderground v.1.15,2013-03-07 10:26:00,
2013-03-07 05:31:00,30.9,27.8,30.33,NW,309,1.0,2.0,88,0.00,,,0.00,0,Wunderground v.1.15,2013-03-07 10:31:00,
2013-03-07 05:36:00,31.0,27.9,30.33,NW,309,0.0,2.0,88,0.00,,,0.00,0,Wunderground v.1.15,2013-03-07 10:36:00,
2013-03-07 05:41:00,31.0,27.9,30.34,NW,309,1.0,2.0,88,0.00,,,0.00,0,Wunderground v.1.15,2013-03-07 10:41:00,
2013-03-07 05:46:00,31.0,27.9,30.34,NW,309,0.0,2.0,88,0.00,,,0.00,0,Wunderground v.1.15,2013-03-07 10:46:00,
2013-03-07 05:51:00,31.0,27.9,30.34,NW,309,2.0,3.0,88,0.00,,,0.00,0,Wunderground v.1.15,2013-03-07 10:51:00,
2013-03-07 05:56:00,30.9,27.8,30.34,NW,311,3.0,4.0,88,0.00,,,0.00,0,Wunderground v.1.15,2013-03-07 10:56:00,
2013-03-07 06:01:00,30.9,27.8,30.34,NW,318,3.0,3.0,88,0.00,,,0.00,0,Wunderground v.1.15,2013-03-07 11:01:00,
2013-03-07 06:06:00,30.9,28.0,30.35,NW,317,1.0,4.0,89,0.00,,,0.00,0,Wunderground v.1.15,2013-03-07 11:06:00,
2013-03-07 06:11:00,30.9,28.0,30.35,NW,321,1.0,3.0,89,0.00,,,0.00,0,Wunderground v.1.15,2013-03-07 11:11:00,
2013-03-07 06:16:00,30.9,28.0,30.35,NW,317,2.0,3.0,89,0.00,,,0.00,0,Wunderground v.1.15,2013-03-07 11:16:00,
2013-03-07 06:21:00,30.9,28.0,30.35,NNW,331,2.0,5.0,89,0.00,,,0.00,0,Wunderground v.1.15,2013-03-07 11:21:00,
2013-03-07 06:26:00,30.8,27.9,30.35,NW,307,3.0,5.0,89,0.00,,,0.00,0,Wunderground v.1.15,2013-03-07 11:26:00,
2013-03-07 06:31:00,30.8,27.9,30.35,NW,326,1.0,4.0,89,0.00,,,0.00,0,Wunderground v.1.15,2013-03-07 11:31:00,
2013-03-07 06:36:00,30.8,27.9,30.35,NW,324,1.0,5.0,89,0.00,,,0.00,0,Wunderground v.1.15,2013-03-07 11:36:00,
2013-03-07 06:41:00,30.8,27.9,30.36,NNW,341,4.0,4.0,89,0.00,,,0.00,0,Wunderground v.1.15,2013-03-07 11:41:00,
2013-03-07 06:46:00,30.8,27.9,30.36,NNW,344,0.0,6.0,89,0.00,,,0.00,0,Wunderground v.1.15,2013-03-07 11:46:00,
2013-03-07 06:52:00,30.8,27.9,30.36,North,360,1.0,3.0,89,0.00,,,0.00,0,Wunderground v.1.15,2013-03-07 11:52:00,
2013-03-07 06:57:00,30.8,27.9,30.36,North,5,2.0,4.0,89,0.00,,,0.00,0,Wunderground v.1.15,2013-03-07 11:57:00,
2013-03-07 07:02:00,30.8,28.2,30.36,NNW,329,2.0,2.0,90,0.00,,,0.00,0,Wunderground v.1.15,2013-03-07 12:02:00,
2013-03-07 07:07:00,30.8,28.2,30.36,North,355,2.0,4.0,90,0.00,,,0.00,0,Wunderground v.1.15,2013-03-07 12:07:00,
2013-03-07 07:12:00,30.8,28.2,30.37,North,355,2.0,3.0,90,0.00,,,0.00,0,Wunderground v.1.15,2013-03-07 12:12:00,
2013-03-07 07:17:00,30.7,28.1,30.37,NNW,339,2.0,4.0,90,0.00,,,0.00,0,Wunderground v.1.15,2013-03-07 12:17:00,
2013-03-07 07:22:00,30.7,28.1,30.37,NNW,332,3.0,3.0,90,0.00,,,0.00,5,Wunderground v.1.15,2013-03-07 12:22:00,
2013-03-07 07:27:00,30.8,28.2,30.37,NNW,332,0.0,3.0,90,0.00,,,0.00,7,Wunderground v.1.15,2013-03-07 12:27:00,
2013-03-07 07:32:00,30.8,28.2,30.37,NNW,328,0.0,4.0,90,0.00,,,0.00,7,Wunderground v.1.15,2013-03-07 12:32:00,
2013-03-07 07:37:00,30.8,28.2,30.37,NNW,332,2.0,4.0,90,0.00,,,0.00,11,Wunderground v.1.15,2013-03-07 12:37:00,
2013-03-07 07:42:00,30.8,28.2,30.37,NNW,333,1.0,3.0,90,0.00,,,0.00,12,Wunderground v.1.15,2013-03-07 12:42:00,
2013-03-07 07:47:00,30.9,28.3,30.38,NNW,333,1.0,3.0,90,0.00,,,0.00,14,Wunderground v.1.15,2013-03-07 12:47:00,
2013-03-07 07:52:00,30.9,28.3,30.38,NNW,348,1.0,4.0,90,0.00,,,0.00,18,Wunderground v.1.15,2013-03-07 12:52:00,
2013-03-07 07:57:00,30.9,28.3,30.38,North,355,0.0,4.0,90,0.00,,,0.00,18,Wunderground v.1.15,2013-03-07 12:57:00,
2013-03-07 08:02:00,30.9,28.3,30.38,NNW,333,2.0,3.0,90,0.00,,,0.00,19,Wunderground v.1.15,2013-03-07 13:02:00,
2013-03-07 08:07:00,30.9,28.3,30.38,NNW,333,1.0,3.0,90,0.00,,,0.00,23,Wunderground v.1.15,2013-03-07 13:07:00,
2013-03-07 08:12:00,30.9,28.3,30.38,NNW,335,2.0,3.0,90,0.00,,,0.00,28,Wunderground v.1.15,2013-03-07 13:12:00,
2013-03-07 08:17:00,30.9,28.3,30.38,NNW,335,1.0,4.0,90,0.00,,,0.00,30,Wunderground v.1.15,2013-03-07 13:17:00,
2013-03-07 08:23:00,31.0,28.4,30.39,NW,322,2.0,4.0,90,0.00,,,0.00,37,Wunderground v.1.15,2013-03-07 13:23:00,
2013-03-07 08:28:00,31.0,28.4,30.38,NW,315,4.0,5.0,90,0.00,,,0.00,40,Wunderground v.1.15,2013-03-07 13:28:00,
2013-03-07 08:33:00,31.0,28.4,30.39,NW,316,3.0,4.0,90,0.00,,,0.00,47,Wunderground v.1.15,2013-03-07 13:33:00,
2013-03-07 08:38:00,31.1,28.5,30.39,NW,315,4.0,4.0,90,0.00,,,0.00,49,Wunderground v.1.15,2013-03-07 13:38:00,
2013-03-07 08:43:00,31.1,28.5,30.39,WNW,299,2.0,5.0,90,0.00,,,0.00,53,Wunderground v.1.15,2013-03-07 13:43:00,
2013-03-07 08:48:00,31.2,28.6,30.39,NW,312,0.0,5.0,90,0.00,,,0.00,56,Wunderground v.1.15,2013-03-07 13:48:00,
2013-03-07 08:53:00,31.3,28.7,30.39,NW,313,1.0,4.0,90,0.00,,,0.00,56,Wunderground v.1.15,2013-03-07 13:53:00,
2013-03-07 08:58:00,31.3,28.7,30.40,NW,313,2.0,4.0,90,0.00,,,0.00,65,Wunderground v.1.15,2013-03-07 13:58:00,
2013-03-07 09:03:00,31.4,28.8,30.40,NNW,331,4.0,5.0,90,0.00,,,0.00,70,Wunderground v.1.15,2013-03-07 14:03:00,
2013-03-07 09:08:00,31.4,28.8,30.39,NW,315,3.0,5.0,90,0.00,,,0.00,76,Wunderground v.1.15,2013-03-07 14:08:00,
2013-03-07 09:13:00,31.5,28.9,30.40,NW,320,2.0,3.0,90,0.00,,,0.00,77,Wunderground v.1.15,2013-03-07 14:13:00,
2013-03-07 09:18:00,31.5,28.9,30.39,NW,311,3.0,4.0,90,0.00,,,0.00,81,Wunderground v.1.15,2013-03-07 14:18:00,
2013-03-07 09:23:00,31.5,28.9,30.40,NNW,338,1.0,3.0,90,0.00,,,0.00,91,Wunderground v.1.15,2013-03-07 14:23:00,
2013-03-07 09:28:00,31.6,29.0,30.40,NNW,329,1.0,3.0,90,0.00,,,0.00,105,Wunderground v.1.15,2013-03-07 14:28:00,
2013-03-07 09:33:00,31.7,29.1,30.40,NW,323,3.0,4.0,90,0.00,,,0.00,114,Wunderground v.1.15,2013-03-07 14:33:00,
2013-03-07 09:38:00,31.7,29.1,30.40,North,350,4.0,4.0,90,0.00,,,0.00,111,Wunderground v.1.15,2013-03-07 14:38:00,
2013-03-07 09:43:00,31.7,29.1,30.40,NNW,338,3.0,5.0,90,0.00,,,0.00,120,Wunderground v.1.15,2013-03-07 14:43:00,
2013-03-07 09:48:00,31.8,29.2,30.40,NNW,344,2.0,5.0,90,0.00,,,0.00,127,Wunderground v.1.15,2013-03-07 14:48:00,
2013-03-07 09:53:00,32.1,29.8,30.40,North,355,3.0,4.0,91,0.00,,,0.00,155,Wunderground v.1.15,2013-03-07 14:53:00,
2013-03-07 09:58:00,32.1,29.5,30.40,NNW,328,2.0,5.0,90,0.00,,,0.00,155,Wunderground v.1.15,2013-03-07 14:58:00,
2013-03-07 10:03:00,32.1,29.5,30.40,NW,317,3.0,4.0,90,0.00,,,0.00,172,Wunderground v.1.15,2013-03-07 15:03:00,
2013-03-07 10:08:00,32.4,30.1,30.40,North,5,2.0,4.0,91,0.00,,,0.00,192,Wunderground v.1.15,2013-03-07 15:08:00,
2013-03-07 10:13:00,32.4,29.5,30.40,NNW,331,4.0,4.0,89,0.00,,,0.00,195,Wunderground v.1.15,2013-03-07 15:13:00,
2013-03-07 10:18:00,32.5,29.6,30.40,North,355,0.0,4.0,89,0.00,,,0.00,193,Wunderground v.1.15,2013-03-07 15:18:00,
2013-03-07 10:23:00,32.7,30.1,30.40,NW,321,3.0,4.0,90,0.00,,,0.00,163,Wunderground v.1.15,2013-03-07 15:23:00,
2013-03-07 10:28:00,32.7,30.1,30.40,NNE,21,2.0,4.0,90,0.00,,,0.00,216,Wunderground v.1.15,2013-03-07 15:28:00,
2013-03-07 10:33:00,32.7,29.8,30.40,NNE,21,2.0,3.0,89,0.00,,,0.00,199,Wunderground v.1.15,2013-03-07 15:33:00,
2013-03-07 10:38:00,32.8,29.9,30.40,North,5,3.0,4.0,89,0.00,,,0.00,221,Wunderground v.1.15,2013-03-07 15:38:00,
2013-03-07 10:43:00,32.8,29.6,30.41,NNE,25,3.0,5.0,88,0.00,,,0.00,223,Wunderground v.1.15,2013-03-07 15:43:00,
2013-03-07 10:48:00,32.9,29.7,30.41,NNW,348,4.0,5.0,88,0.00,,,0.00,250,Wunderground v.1.15,2013-03-07 15:48:00,
2013-03-07 10:53:00,33.1,29.9,30.40,NNW,333,2.0,4.0,88,0.00,,,0.00,253,Wunderground v.1.15,2013-03-07 15:53:00,
2013-03-07 10:58:00,33.4,30.2,30.41,North,355,2.0,5.0,88,0.00,,,0.00,258,Wunderground v.1.15,2013-03-07 15:58:00,
2013-03-07 11:03:00,33.4,29.9,30.41,NNE,14,4.0,6.0,87,0.00,,,0.00,253,Wunderground v.1.15,2013-03-07 16:03:00,
2013-03-07 11:09:00,33.4,29.9,30.40,NNE,25,4.0,6.0,87,0.00,,,0.01,253,Wunderground v.1.15,2013-03-07 16:09:00,
2013-03-07 11:14:00,33.1,29.4,30.41,NE,40,3.0,7.0,86,0.00,,,0.01,243,Wunderground v.1.15,2013-03-07 16:14:00,
2013-03-07 11:19:00,33.2,29.5,30.40,NNE,28,4.0,7.0,86,0.00,,,0.01,260,Wunderground v.1.15,2013-03-07 16:19:00,
2013-03-07 11:24:00,33.2,29.8,30.40,NE,45,6.0,7.0,87,0.00,,,0.01,251,Wunderground v.1.15,2013-03-07 16:24:00,
2013-03-07 11:29:00,33.4,29.7,30.40,ENE,69,4.0,7.0,86,0.00,,,0.01,246,Wunderground v.1.15,2013-03-07 16:29:00,
2013-03-07 11:34:00,33.5,29.8,30.41,NNE,13,3.0,5.0,86,0.00,,,0.01,281,Wunderground v.1.15,2013-03-07 16:34:00,
2013-03-07 11:39:00,33.9,30.2,30.41,ENE,63,3.0,5.0,86,0.00,,,0.01,274,Wunderground v.1.15,2013-03-07 16:39:00,
2013-03-07 11:44:00,33.5,29.2,30.40,NE,39,5.0,6.0,84,0.00,,,0.01,193,Wunderground v.1.15,2013-03-07 16:44:00,
2013-03-07 11:49:00,33.4,29.4,30.41,NE,45,3.0,7.0,85,0.00,,,0.01,211,Wunderground v.1.15,2013-03-07 16:49:00,
2013-03-07 11:54:00,33.4,29.7,30.41,NNE,23,4.0,5.0,86,0.00,,,0.01,174,Wunderground v.1.15,2013-03-07 16:54:00,
2013-03-07 11:59:00,33.8,29.8,30.41,North,355,2.0,5.0,85,0.00,,,0.01,167,Wunderground v.1.15,2013-03-07 16:59:00,
2013-03-07 12:04:00,34.1,30.1,30.41,NNE,12,2.0,4.0,85,0.00,,,0.01,188,Wunderground v.1.15,2013-03-07 17:04:00,
2013-03-07 12:09:00,34.1,29.8,30.41,North,360,1.0,2.0,84,0.00,,,0.01,178,Wunderground v.1.15,2013-03-07 17:09:00,
2013-03-07 12:14:00,33.9,29.3,30.41,NNE,27,3.0,5.0,83,0.00,,,0.01,185,Wunderground v.1.15,2013-03-07 17:14:00,
2013-03-07 12:19:00,33.9,29.6,30.40,North,9,5.0,5.0,84,0.00,,,0.01,185,Wunderground v.1.15,2013-03-07 17:19:00,
2013-03-07 12:24:00,34.1,29.8,30.40,NNE,26,3.0,6.0,84,0.00,,,0.01,234,Wunderground v.1.15,2013-03-07 17:24:00,
2013-03-07 12:29:00,34.3,29.7,30.40,North,5,0.0,3.0,83,0.00,,,0.01,188,Wunderground v.1.15,2013-03-07 17:29:00,
2013-03-07 12:34:00,34.4,29.8,30.40,NNE,25,1.0,3.0,83,0.00,,,0.01,162,Wunderground v.1.15,2013-03-07 17:34:00,
2013-03-07 12:39:00,33.9,29.0,30.40,NE,53,3.0,3.0,82,0.00,,,0.01,132,Wunderground v.1.15,2013-03-07 17:39:00,
2013-03-07 12:44:00,33.8,29.2,30.40,NE,34,5.0,6.0,83,0.00,,,0.01,141,Wunderground v.1.15,2013-03-07 17:44:00,
2013-03-07 12:49:00,33.9,29.0,30.40,NNE,26,3.0,4.0,82,0.00,,,0.01,151,Wunderground v.1.15,2013-03-07 17:49:00,
2013-03-07 12:54:00,34.0,28.8,30.39,NNE,30,3.0,5.0,81,0.00,,,0.01,151,Wunderground v.1.15,2013-03-07 17:54:00,
2013-03-07 12:59:00,34.2,29.3,30.39,NE,42,3.0,4.0,82,0.00,,,0.01,163,Wunderground v.1.15,2013-03-07 17:59:00,
2013-03-07 13:04:00,34.2,29.3,30.39,NNW,342,2.0,5.0,82,0.00,,,0.01,183,Wunderground v.1.15,2013-03-07 18:04:00,
2013-03-07 13:09:00,34.3,29.1,30.39,NE,45,3.0,3.0,81,0.00,,,0.01,220,Wunderground v.1.15,2013-03-07 18:09:00,
2013-03-07 13:14:00,34.5,29.0,30.39,NE,40,3.0,6.0,80,0.00,,,0.01,237,Wunderground v.1.15,2013-03-07 18:14:00,
2013-03-07 13:19:00,34.7,29.2,30.39,NNE,33,4.0,4.0,80,0.00,,,0.01,207,Wunderground v.1.15,2013-03-07 18:19:00,
2013-03-07 13:24:00,34.8,28.6,30.38,NE,51,2.0,6.0,78,0.00,,,0.01,179,Wunderground v.1.15,2013-03-07 18:24:00,
2013-03-07 13:29:00,34.6,28.8,30.38,North,5,3.0,3.0,79,0.00,,,0.01,151,Wunderground v.1.15,2013-03-07 18:29:00,
2013-03-07 13:34:00,34.9,28.4,30.38,NNW,331,3.0,5.0,77,0.00,,,0.01,146,Wunderground v.1.15,2013-03-07 18:34:00,
2013-03-07 13:39:00,35.0,29.1,30.38,NNE,22,6.0,6.0,79,0.00,,,0.01,134,Wunderground v.1.15,2013-03-07 18:39:00,
2013-03-07 13:44:00,34.6,28.8,30.38,NE,37,4.0,6.0,79,0.00,,,0.01,156,Wunderground v.1.15,2013-03-07 18:44:00,
2013-03-07 13:49:00,34.8,28.6,30.38,NNE,33,4.0,7.0,78,0.00,,,0.01,156,Wunderground v.1.15,2013-03-07 18:49:00,
2013-03-07 13:54:00,34.6,28.1,30.38,NE,38,3.0,7.0,77,0.00,,,0.01,172,Wunderground v.1.15,2013-03-07 18:54:00,
2013-03-07 14:01:00,35.4,29.2,30.38,NNW,344,5.0,5.0,78,0.00,,,0.01,199,Wunderground v.1.15,2013-03-07 19:01:00,
2013-03-07 14:07:00,35.3,29.1,30.37,North,355,4.0,6.0,78,0.00,,,0.01,176,Wunderground v.1.15,2013-03-07 19:07:00,
2013-03-07 14:12:00,35.3,29.1,30.37,North,5,5.0,5.0,78,0.00,,,0.01,151,Wunderground v.1.15,2013-03-07 19:12:00,
2013-03-07 14:17:00,35.3,29.1,30.37,North,5,4.0,8.0,78,0.00,,,0.01,123,Wunderground v.1.15,2013-03-07 19:17:00,
2013-03-07 14:22:00,35.3,28.5,30.37,NW,316,3.0,6.0,76,0.00,,,0.01,137,Wunderground v.1.15,2013-03-07 19:22:00,
2013-03-07 14:27:00,35.3,28.8,30.37,NNW,334,4.0,8.0,77,0.00,,,0.01,132,Wunderground v.1.15,2013-03-07 19:27:00,
2013-03-07 14:32:00,35.3,29.1,30.38,North,360,0.0,4.0,78,0.00,,,0.01,125,Wunderground v.1.15,2013-03-07 19:32:00,
2013-03-07 14:37:00,35.4,28.6,30.38,NW,318,1.0,5.0,76,0.00,,,0.01,109,Wunderground v.1.15,2013-03-07 19:37:00,
2013-03-07 14:42:00,35.3,28.5,30.38,North,9,3.0,5.0,76,0.00,,,0.01,104,Wunderground v.1.15,2013-03-07 19:42:00,
2013-03-07 14:47:00,35.4,28.9,30.38,NNW,346,1.0,5.0,77,0.00,,,0.01,104,Wunderground v.1.15,2013-03-07 19:47:00,
2013-03-07 14:52:00,35.6,28.8,30.38,NNW,336,2.0,5.0,76,0.00,,,0.01,102,Wunderground v.1.15,2013-03-07 19:52:00,
2013-03-07 14:57:00,35.3,28.5,30.38,NNE,17,2.0,6.0,76,0.00,,,0.01,98,Wunderground v.1.15,2013-03-07 19:57:00,
2013-03-07 15:02:00,35.4,28.9,30.38,North,355,1.0,3.0,77,0.00,,,0.01,91,Wunderground v.1.15,2013-03-07 20:02:00,
2013-03-07 15:07:00,35.5,29.0,30.38,NNW,342,4.0,5.0,77,0.00,,,0.01,88,Wunderground v.1.15,2013-03-07 20:07:00,
2013-03-07 15:12:00,35.4,28.9,30.38,North,360,4.0,5.0,77,0.00,,,0.01,90,Wunderground v.1.15,2013-03-07 20:12:00,
2013-03-07 15:17:00,35.2,28.7,30.38,NE,36,5.0,8.0,77,0.00,,,0.01,93,Wunderground v.1.15,2013-03-07 20:17:00,
2013-03-07 15:22:00,35.1,28.6,30.38,NE,45,2.0,6.0,77,0.00,,,0.01,95,Wunderground v.1.15,2013-03-07 20:22:00,
2013-03-07 15:27:00,35.2,29.0,30.38,NNE,30,4.0,6.0,78,0.00,,,0.01,91,Wunderground v.1.15,2013-03-07 20:27:00,
2013-03-07 15:32:00,35.3,29.1,30.38,NNE,17,4.0,6.0,78,0.00,,,0.01,90,Wunderground v.1.15,2013-03-07 20:32:00,
2013-03-07 15:37:00,35.3,29.1,30.38,NNE,25,3.0,6.0,78,0.00,,,0.01,84,Wunderground v.1.15,2013-03-07 20:37:00,
2013-03-07 15:42:00,35.1,28.6,30.38,NNE,30,3.0,6.0,77,0.00,,,0.01,84,Wunderground v.1.15,2013-03-07 20:42:00,
2013-03-07 15:47:00,35.1,28.9,30.38,North,349,2.0,6.0,78,0.00,,,0.01,83,Wunderground v.1.15,2013-03-07 20:47:00,
2013-03-07 15:52:00,35.2,28.7,30.38,NNE,22,3.0,3.0,77,0.00,,,0.01,76,Wunderground v.1.15,2013-03-07 20:52:00,
2013-03-07 15:58:00,35.1,28.6,30.38,NNE,28,4.0,6.0,77,0.00,,,0.01,70,Wunderground v.1.15,2013-03-07 20:58:00,
2013-03-07 16:03:00,35.1,28.9,30.38,NNE,16,3.0,5.0,78,0.00,,,0.01,72,Wunderground v.1.15,2013-03-07 21:03:00,
2013-03-07 16:08:00,35.2,29.0,30.38,NE,34,2.0,5.0,78,0.00,,,0.01,72,Wunderground v.1.15,2013-03-07 21:08:00,
2013-03-07 16:13:00,35.3,29.1,30.38,North,5,1.0,4.0,78,0.00,,,0.01,74,Wunderground v.1.15,2013-03-07 21:13:00,
2013-03-07 16:18:00,35.3,29.1,30.38,NE,36,2.0,6.0,78,0.00,,,0.01,77,Wunderground v.1.15,2013-03-07 21:18:00,
2013-03-07 16:23:00,35.4,28.9,30.38,NNE,22,3.0,5.0,77,0.00,,,0.01,74,Wunderground v.1.15,2013-03-07 21:23:00,
2013-03-07 16:28:00,35.4,28.9,30.38,NNE,19,2.0,6.0,77,0.00,,,0.01,69,Wunderground v.1.15,2013-03-07 21:28:00,
2013-03-07 16:33:00,35.3,28.8,30.38,NNE,32,5.0,6.0,77,0.00,,,0.01,60,Wunderground v.1.15,2013-03-07 21:33:00,
2013-03-07 16:38:00,35.2,28.4,30.38,NNE,19,3.0,6.0,76,0.00,,,0.01,56,Wunderground v.1.15,2013-03-07 21:38:00,
2013-03-07 16:43:00,35.3,28.5,30.38,North,5,2.0,4.0,76,0.00,,,0.01,53,Wunderground v.1.15,2013-03-07 21:43:00,
2013-03-07 16:48:00,35.3,28.5,30.38,North,355,2.0,4.0,76,0.00,,,0.01,54,Wunderground v.1.15,2013-03-07 21:48:00,
2013-03-07 16:53:00,35.3,27.8,30.39,NNE,19,2.0,4.0,74,0.00,,,0.01,53,Wunderground v.1.15,2013-03-07 21:53:00,
2013-03-07 16:58:00,35.3,27.8,30.39,NE,49,3.0,5.0,74,0.00,,,0.01,47,Wunderground v.1.15,2013-03-07 21:58:00,
2013-03-07 17:03:00,35.2,28.1,30.39,ENE,58,2.0,4.0,75,0.00,,,0.01,37,Wunderground v.1.15,2013-03-07 22:03:00,
2013-03-07 17:08:00,35.3,28.5,30.39,NNE,31,3.0,4.0,76,0.00,,,0.01,33,Wunderground v.1.15,2013-03-07 22:08:00,
2013-03-07 17:13:00,35.3,29.1,30.39,NNE,17,2.0,4.0,78,0.00,,,0.01,33,Wunderground v.1.15,2013-03-07 22:13:00,
2013-03-07 17:18:00,35.3,29.1,30.39,North,5,2.0,5.0,78,0.00,,,0.01,35,Wunderground v.1.15,2013-03-07 22:18:00,
2013-03-07 17:23:00,35.3,29.1,30.39,North,5,4.0,4.0,78,0.00,,,0.01,39,Wunderground v.1.15,2013-03-07 22:23:00,
2013-03-07 17:28:00,35.2,28.4,30.39,NNE,15,2.0,5.0,76,0.00,,,0.01,39,Wunderground v.1.15,2013-03-07 22:28:00,
2013-03-07 17:33:00,35.3,28.5,30.39,North,355,3.0,4.0,76,0.00,,,0.01,35,Wunderground v.1.15,2013-03-07 22:33:00,
2013-03-07 17:38:00,35.3,28.5,30.40,NNW,342,4.0,5.0,76,0.00,,,0.01,30,Wunderground v.1.15,2013-03-07 22:38:00,
2013-03-07 17:43:00,35.2,28.4,30.40,NW,326,3.0,5.0,76,0.00,,,0.01,28,Wunderground v.1.15,2013-03-07 22:43:00,
2013-03-07 17:48:00,35.2,28.4,30.40,North,351,2.0,6.0,76,0.00,,,0.01,26,Wunderground v.1.15,2013-03-07 22:48:00,
2013-03-07 17:53:00,35.2,28.4,30.40,NNW,330,0.0,3.0,76,0.00,,,0.01,23,Wunderground v.1.15,2013-03-07 22:53:00,
2013-03-07 17:58:00,35.2,28.7,30.40,NNW,346,0.0,3.0,77,0.00,,,0.01,18,Wunderground v.1.15,2013-03-07 22:58:00,
2013-03-07 18:03:00,35.2,28.4,30.40,North,5,3.0,4.0,76,0.00,,,0.01,14,Wunderground v.1.15,2013-03-07 23:03:00,
2013-03-07 18:08:00,35.1,28.3,30.40,NNW,347,3.0,4.0,76,0.00,,,0.01,11,Wunderground v.1.15,2013-03-07 23:08:00,
2013-03-07 18:13:00,35.0,28.5,30.40,North,355,4.0,4.0,77,0.00,,,0.01,9,Wunderground v.1.15,2013-03-07 23:13:00,
2013-03-07 18:18:00,35.0,28.5,30.40,NNW,338,2.0,4.0,77,0.00,,,0.01,7,Wunderground v.1.15,2013-03-07 23:18:00,
2013-03-07 18:23:00,34.9,28.4,30.40,NNW,346,3.0,3.0,77,0.00,,,0.01,0,Wunderground v.1.15,2013-03-07 23:23:00,
2013-03-07 18:28:00,34.9,28.4,30.40,NNW,338,0.0,4.0,77,0.00,,,0.01,0,Wunderground v.1.15,2013-03-07 23:28:00,
2013-03-07 18:33:00,34.8,28.3,30.40,NNW,342,2.0,3.0,77,0.00,,,0.01,0,Wunderground v.1.15,2013-03-07 23:33:00,
2013-03-07 18:39:00,34.8,28.0,30.40,NNW,348,1.0,3.0,76,0.00,,,0.01,0,Wunderground v.1.15,2013-03-07 23:39:00,
2013-03-07 18:44:00,34.8,28.3,30.40,NNW,344,1.0,3.0,77,0.00,,,0.01,0,Wunderground v.1.15,2013-03-07 23:44:00,
2013-03-07 18:49:00,34.8,28.6,30.40,NNW,347,1.0,2.0,78,0.00,,,0.01,0,Wunderground v.1.15,2013-03-07 23:49:00,
2013-03-07 18:54:00,34.8,28.6,30.40,NNW,347,1.0,2.0,78,0.00,,,0.01,0,Wunderground v.1.15,2013-03-07 23:54:00,
2013-03-07 18:59:00,34.7,28.2,30.40,NNW,347,0.0,0.0,77,0.00,,,0.01,0,Wunderground v.1.15,2013-03-07 23:59:00,
2013-03-07 19:04:00,34.7,28.2,30.40,NNW,347,0.0,2.0,77,0.00,,,0.01,0,Wunderground v.1.15,2013-03-08 00:04:00,
2013-03-07 19:09:00,34.8,28.6,30.40,NNW,347,0.0,0.0,78,0.00,,,0.01,0,Wunderground v.1.15,2013-03-08 00:09:00,
2013-03-07 19:14:00,34.7,28.2,30.40,NNW,347,1.0,1.0,77,0.00,,,0.01,0,Wunderground v.1.15,2013-03-08 00:14:00,
2013-03-07 19:19:00,34.6,28.1,30.40,NNW,347,0.0,1.0,77,0.00,,,0.01,0,Wunderground v.1.15,2013-03-08 00:19:00,
2013-03-07 19:24:00,34.6,28.1,30.41,NNW,347,0.0,2.0,77,0.00,,,0.01,0,Wunderground v.1.15,2013-03-08 00:24:00,
2013-03-07 19:29:00,34.7,28.2,30.41,NNW,347,0.0,0.0,77,0.00,,,0.01,0,Wunderground v.1.15,2013-03-08 00:29:00,
2013-03-07 19:34:00,34.7,28.2,30.41,NNW,347,0.0,0.0,77,0.00,,,0.01,0,Wunderground v.1.15,2013-03-08 00:34:00,
2013-03-07 19:39:00,34.6,28.1,30.41,NNW,347,0.0,0.0,77,0.00,,,0.01,0,Wunderground v.1.15,2013-03-08 00:39:00,
2013-03-07 19:44:00,34.7,28.2,30.41,NNW,347,0.0,0.0,77,0.00,,,0.01,0,Wunderground v.1.15,2013-03-08 00:44:00,
2013-03-07 19:49:00,34.8,28.0,30.41,NNW,347,0.0,0.0,76,0.00,,,0.01,0,Wunderground v.1.15,2013-03-08 00:49:00,
2013-03-07 19:54:00,34.8,28.3,30.40,NNW,347,0.0,2.0,77,0.00,,,0.01,0,Wunderground v.1.15,2013-03-08 00:54:00,
2013-03-07 19:59:00,34.7,28.2,30.40,NNW,347,0.0,0.0,77,0.00,,,0.01,0,Wunderground v.1.15,2013-03-08 00:59:00,
2013-03-07 20:04:00,34.7,28.2,30.40,NNW,347,0.0,0.0,77,0.00,,,0.01,0,Wunderground v.1.15,2013-03-08 01:04:00,
2013-03-07 20:09:00,34.7,28.2,30.40,NNW,340,0.0,1.0,77,0.00,,,0.01,0,Wunderground v.1.15,2013-03-08 01:09:00,
2013-03-07 20:14:00,34.6,28.4,30.41,NNW,340,0.0,1.0,78,0.00,,,0.01,0,Wunderground v.1.15,2013-03-08 01:14:00,
2013-03-07 20:20:00,34.6,28.4,30.41,NNW,340,0.0,0.0,78,0.00,,,0.01,0,Wunderground v.1.15,2013-03-08 01:20:00,
2013-03-07 20:25:00,34.6,28.4,30.41,NNW,340,0.0,2.0,78,0.00,,,0.01,0,Wunderground v.1.15,2013-03-08 01:25:00,
2013-03-07 20:30:00,34.6,28.4,30.41,NNW,340,0.0,0.0,78,0.00,,,0.01,0,Wunderground v.1.15,2013-03-08 01:30:00,
2013-03-07 20:35:00,34.6,28.8,30.41,NNW,340,0.0,1.0,79,0.00,,,0.01,0,Wunderground v.1.15,2013-03-08 01:35:00,
2013-03-07 20:40:00,34.6,28.4,30.41,NNW,340,0.0,0.0,78,0.00,,,0.01,0,Wunderground v.1.15,2013-03-08 01:40:00,
2013-03-07 20:45:00,34.5,28.3,30.41,NNW,340,0.0,1.0,78,0.00,,,0.01,0,Wunderground v.1.15,2013-03-08 01:45:00,
2013-03-07 20:50:00,34.6,28.8,30.41,NNW,340,0.0,0.0,79,0.00,,,0.01,0,Wunderground v.1.15,2013-03-08 01:50:00,
2013-03-07 20:55:00,34.6,28.1,30.41,NNW,340,0.0,2.0,77,0.00,,,0.01,0,Wunderground v.1.15,2013-03-08 01:55:00,
2013-03-07 21:01:00,34.7,28.2,30.41,NNW,340,0.0,1.0,77,0.00,,,0.01,0,Wunderground v.1.15,2013-03-08 02:01:00,
2013-03-07 21:06:00,34.6,29.1,30.41,NNW,340,0.0,1.0,80,0.00,,,0.01,0,Wunderground v.1.15,2013-03-08 02:06:00,
2013-03-07 21:11:00,34.4,28.9,30.41,NNW,340,1.0,1.0,80,0.00,,,0.01,0,Wunderground v.1.15,2013-03-08 02:11:00,
2013-03-07 21:16:00,34.4,28.6,30.41,NNW,340,0.0,1.0,79,0.00,,,0.01,0,Wunderground v.1.15,2013-03-08 02:16:00,
2013-03-07 21:21:00,34.6,28.4,30.41,North,355,0.0,0.0,78,0.00,,,0.01,0,Wunderground v.1.15,2013-03-08 02:21:00,
2013-03-07 21:26:00,34.6,28.4,30.41,North,355,0.0,0.0,78,0.00,,,0.01,0,Wunderground v.1.15,2013-03-08 02:26:00,
2013-03-07 21:31:00,34.5,28.7,30.41,North,355,0.0,0.0,79,0.00,,,0.01,0,Wunderground v.1.15,2013-03-08 02:31:00,
2013-03-07 21:36:00,34.5,28.7,30.41,North,355,0.0,0.0,79,0.00,,,0.01,0,Wunderground v.1.15,2013-03-08 02:36:00,
2013-03-07 21:41:00,34.5,28.3,30.41,North,355,0.0,0.0,78,0.00,,,0.01,0,Wunderground v.1.15,2013-03-08 02:41:00,
2013-03-07 21:46:00,34.5,28.3,30.41,North,355,0.0,0.0,78,0.00,,,0.01,0,Wunderground v.1.15,2013-03-08 02:46:00,
2013-03-07 21:51:00,34.6,28.4,30.41,North,355,0.0,0.0,78,0.00,,,0.01,0,Wunderground v.1.15,2013-03-08 02:51:00,
2013-03-07 21:56:00,34.6,28.4,30.41,North,355,0.0,0.0,78,0.00,,,0.01,0,Wunderground v.1.15,2013-03-08 02:56:00,
2013-03-07 22:02:00,34.5,28.7,30.41,North,355,0.0,0.0,79,0.00,,,0.01,0,Wunderground v.1.15,2013-03-08 03:02:00,
2013-03-07 22:07:00,34.5,28.7,30.41,North,355,0.0,0.0,79,0.00,,,0.01,0,Wunderground v.1.15,2013-03-08 03:07:00,
2013-03-07 22:12:00,34.4,28.2,30.41,North,355,0.0,0.0,78,0.00,,,0.01,0,Wunderground v.1.15,2013-03-08 03:12:00,
2013-03-07 22:17:00,34.4,28.2,30.41,North,355,0.0,0.0,78,0.00,,,0.01,0,Wunderground v.1.15,2013-03-08 03:17:00,
2013-03-07 22:22:00,34.5,28.3,30.41,North,355,0.0,0.0,78,0.00,,,0.01,0,Wunderground v.1.15,2013-03-08 03:22:00,
2013-03-07 22:27:00,34.4,28.6,30.41,North,355,0.0,0.0,79,0.00,,,0.01,0,Wunderground v.1.15,2013-03-08 03:27:00,
2013-03-07 22:32:00,34.4,28.2,30.41,NE,50,0.0,0.0,78,0.00,,,0.01,0,Wunderground v.1.15,2013-03-08 03:32:00,
2013-03-07 22:37:00,34.5,27.7,30.41,NE,50,0.0,0.0,76,0.00,,,0.01,0,Wunderground v.1.15,2013-03-08 03:37:00,
2013-03-07 22:42:00,34.6,28.1,30.42,NE,50,0.0,0.0,77,0.00,,,0.01,0,Wunderground v.1.15,2013-03-08 03:42:00,
2013-03-07 22:47:00,34.6,27.8,30.41,NE,50,0.0,0.0,76,0.00,,,0.01,0,Wunderground v.1.15,2013-03-08 03:47:00,
2013-03-07 22:52:00,34.6,27.5,30.41,NE,50,0.0,0.0,75,0.00,,,0.01,0,Wunderground v.1.15,2013-03-08 03:52:00,
2013-03-07 22:57:00,34.5,27.4,30.41,ENE,78,0.0,0.0,75,0.00,,,0.01,0,Wunderground v.1.15,2013-03-08 03:57:00,
2013-03-07 23:02:00,34.5,27.4,30.41,East,92,1.0,2.0,75,0.00,,,0.01,0,Wunderground v.1.15,2013-03-08 04:02:00,
2013-03-07 23:07:00,34.4,27.6,30.41,East,100,0.0,2.0,76,0.00,,,0.01,0,Wunderground v.1.15,2013-03-08 04:07:00,
2013-03-07 23:12:00,34.4,27.6,30.41,East,100,0.0,1.0,76,0.00,,,0.01,0,Wunderground v.1.15,2013-03-08 04:12:00,
2013-03-07 23:17:00,34.4,27.9,30.41,East,100,0.0,1.0,77,0.00,,,0.01,0,Wunderground v.1.15,2013-03-08 04:17:00,
2013-03-07 23:23:00,34.4,27.9,30.41,ENE,78,0.0,0.0,77,0.00,,,0.01,0,Wunderground v.1.15,2013-03-08 04:23:00,
2013-03-07 23:28:00,34.3,27.5,30.41,ENE,78,1.0,2.0,76,0.00,,,0.01,0,Wunderground v.1.15,2013-03-08 04:28:00,
2013-03-07 23:33:00,34.4,27.6,30.41,ESE,111,2.0,3.0,76,0.00,,,0.01,0,Wunderground v.1.15,2013-03-08 04:33:00,
2013-03-07 23:38:00,34.4,27.0,30.41,ESE,120,1.0,3.0,74,0.00,,,0.01,0,Wunderground v.1.15,2013-03-08 04:38:00,
2013-03-07 23:43:00,34.4,26.3,30.40,ESE,102,2.0,3.0,72,0.00,,,0.01,0,Wunderground v.1.15,2013-03-08 04:43:00,
2013-03-07 23:48:00,34.4,27.0,30.40,ESE,105,2.0,3.0,74,0.00,,,0.01,0,Wunderground v.1.15,2013-03-08 04:48:00,
2013-03-07 23:53:00,34.0,27.2,30.40,ESE,105,0.0,2.0,76,0.00,,,0.01,0,Wunderground v.1.15,2013-03-08 04:53:00,
2013-03-07 23:58:00,34.0,26.9,30.40,ESE,105,0.0,2.0,75,0.00,,,0.01,0,Wunderground v.1.15,2013-03-08 04:58:00,